CW2718 Weather Reports


Display with metric or nautical units.
time (UTC)temp
F
wind
direction
speed
MPH
gust
MPH
rain 1hr
in
rain 24hr
in
rain mn
in
humidity
%
barometer
mb
20260906174130 78 347 0.0 9.0 0.00 0.00 0.00 55 1013.9
20260906173131 80 101 0.0 6.0 0.00 0.00 0.00 55 1014.0
20260906172130 79 98 0.0 6.0 0.00 0.00 0.00 58 1013.9
20260906171130 78 26 2.0 4.0 0.00 0.00 0.00 60 1014.2
20260906170131 78 5 0.0 4.0 0.00 0.00 0.00 59 1014.2
20260906165130 76 344 1.0 6.0 0.00 0.00 0.00 62 1014.3
20260906164130 75 5 1.0 9.0 0.00 0.00 0.00 65 1014.3
20260906162130 75 360 4.0 6.0 0.00 0.00 0.00 68 1014.3
20260906161130 74 325 3.0 5.0 0.00 0.00 0.00 67 1014.3
20260906160130 74 64 3.0 6.0 0.00 0.00 0.00 69 1014.3
20260906155130 74 360 0.0 6.0 0.00 0.00 0.00 71 1014.4
20260906153130 75 249 0.0 4.0 0.00 0.00 0.00 67 1014.5
20260906152130 75 288 0.0 7.0 0.00 0.00 0.00 67 1014.5
20260906151130 75 335 0.0 7.0 0.00 0.00 0.00 67 1014.3
20260906150130 74 336 0.0 6.0 0.00 0.00 0.00 71 1014.3
20260906145131 75 334 1.0 5.0 0.00 0.00 0.00 68 1014.4
20260906143130 75 111 8.0 8.0 0.00 0.00 0.00 69 1014.3
20260906142130 75 5 0.0 8.0 0.00 0.00 0.00 69 1014.2
20260906140130 75 36 0.0 1.0 0.00 0.00 0.00 69 1014.0
20260906135130 74 59 0.0 3.0 0.00 0.00 0.00 70 1014.0
20260906134129 73 10 0.0 5.0 0.00 0.00 0.00 70 1013.9
20260906133130 72 44 0.0 3.0 0.00 0.00 0.00 72 1013.8
20260906132130 71 21 1.0 6.0 0.00 0.00 0.00 74 1013.9
20260906131130 71 13 1.0 7.0 0.00 0.00 0.00 73 1013.8
20260906125130 70 296 0.0 3.0 0.00 0.00 0.00 77 1013.8
20260906124129 69 344 3.0 8.0 0.00 0.00 0.00 79 1013.7
20260906123130 69 5 3.0 5.0 0.00 0.00 0.00 81 1013.8
20260906121130 66 300 0.0 0.0 0.00 0.00 0.00 89 1013.5
20260906120130 65 303 0.0 0.0 0.00 0.00 0.00 92 1013.4
20260906115129 64 284 0.0 0.0 0.00 0.00 0.00 92 1013.4
20260906114631 63 0 0.0 0.0 0.00 0.00 0.00 84 1010.9
20260906015122 69 282 0.0 0.0 0.00 0.00 0.00 70 1011.0
20260906014122 70 282 0.0 0.0 0.00 0.00 0.00 70 1010.9
20260906013122 70 282 0.0 0.0 0.00 0.00 0.00 69 1010.8
20260906012122 71 282 0.0 0.0 0.00 0.00 0.00 67 1010.7
20260906011122 71 282 0.0 0.0 0.00 0.00 0.00 66 1010.7
20260906010122 71 282 0.0 0.0 0.00 0.00 0.00 65 1010.5
20260906005122 71 282 0.0 0.0 0.00 0.00 0.00 65 1010.2
20260906004121 72 281 0.0 0.0 0.00 0.00 0.00 64 1010.2
20260906003122 72 281 0.0 0.0 0.00 0.00 0.00 63 1010.0
20260906001121 73 281 0.0 0.0 0.00 0.00 0.00 62 1009.8
20260906000121 74 281 0.0 0.0 0.00 0.00 0.00 61 1009.7
20260905235122 74 281 0.0 0.0 0.00 0.00 0.00 60 1009.6
20260905234123 75 281 0.0 0.0 0.00 0.00 0.00 61 1009.3
20260905232121 76 281 0.0 0.0 0.00 0.00 0.00 58 1009.3
20260905231121 77 281 0.0 3.0 0.00 0.00 0.00 57 1009.3
20260905230122 77 208 0.0 0.0 0.00 0.00 0.00 56 1009.2
20260905225121 77 208 0.0 1.0 0.00 0.00 0.00 55 1009.2
20260905224123 78 208 0.0 2.0 0.00 0.00 0.00 53 1009.2
20260905223121 78 203 2.0 2.0 0.00 0.00 0.00 54 1009.3
20260905222121 78 360 0.0 3.0 0.00 0.00 0.00 54 1009.1
20260905221121 78 12 0.0 3.0 0.00 0.00 0.00 52 1008.9
20260905220121 79 5 0.0 5.0 0.00 0.00 0.00 51 1008.9
20260905215121 79 12 2.0 7.0 0.00 0.00 0.00 50 1008.8
20260905213121 79 11 0.0 4.0 0.00 0.00 0.00 51 1008.8
20260905212122 79 12 1.0 3.0 0.00 0.00 0.00 52 1008.9
20260905211121 79 14 2.0 4.0 0.00 0.00 0.00 52 1008.9
20260905210121 79 298 0.0 2.0 0.00 0.00 0.00 53 1008.9
20260905205121 79 275 0.0 2.0 0.00 0.00 0.00 53 1008.8
20260905204121 79 249 0.0 1.0 0.00 0.00 0.00 52 1008.9
20260905203121 80 250 0.0 3.0 0.00 0.00 0.00 52 1008.9
20260905202122 81 244 0.0 3.0 0.00 0.00 0.00 50 1009.1
20260905201122 81 273 0.0 11.0 0.00 0.00 0.00 46 1009.0
20260905200121 82 247 0.0 12.0 0.00 0.00 0.00 48 1009.0
20260905195122 82 231 2.0 11.0 0.00 0.00 0.00 47 1009.0
20260905194121 81 281 0.0 7.0 0.00 0.00 0.00 49 1009.1
20260905192121 80 251 0.0 3.0 0.00 0.00 0.00 52 1009.3
20260905191121 81 254 1.0 4.0 0.00 0.00 0.00 50 1009.3
20260905190121 80 355 0.0 3.0 0.00 0.00 0.00 52 1009.2
20260905185121 80 280 0.0 0.0 0.00 0.00 0.00 54 1009.2
20260905184121 80 284 0.0 4.0 0.00 0.00 0.00 52 1009.3
20260905183121 80 286 1.0 8.0 0.00 0.00 0.00 50 1009.4
20260905182121 81 300 1.0 2.0 0.00 0.00 0.00 53 1009.4
20260905181121 80 5 0.0 4.0 0.00 0.00 0.00 52 1009.5
20260905180121 81 296 0.0 6.0 0.00 0.00 0.00 50 1009.5
20260905175121 82 275 0.0 4.0 0.00 0.00 0.00 50 1009.6